[[{"header":{"parameterUnit":"m.s-1","parameterCategory":1,"la1":30.2991,"la2":30.254,"lo1":-89.0895,"lo2":-89.0444,"dy":0.0017,"dx":0.0017,"nx":28,"ny":28,"refTime":"2024-03-02T09:00:00:Z","depth":0,"parameterNumber":2,"parameterNumberName":"U-component_of_WINDS"},"data":[0,0,0,0,0,0,0,0,0,0,0,0,0,0,0,0,0,0,0,0,0,0,0,0,0,0,0,0,0,0,0,0,0,0,0,0,0,0,0,0,0,0,0,0,0,0,0,0,0,0,0,0,0,0,0,0,0,0,-1.1582,-1.1582,0,-1.1591,-1.1591,-1.1591,-1.1549,-1.1548,-1.1546,-1.1545,-1.1556,-1.1558,-1.1559,0,0,0,0,0,0,0,0,0,0,0,0,0,-1.1529,-1.153,-1.1582,-1.1582,-1.1582,-1.1591,-1.1591,-1.1591,-1.1549,-1.1547,-1.1546,-1.1545,-1.1556,-1.1558,-1.1559,0,0,0,0,0,0,0,0,0,0,0,0,0,-1.1546,-1.153,-1.1582,-1.1562,-1.156,-1.1591,-1.1591,-1.1591,-1.1549,-1.1547,-1.1546,-1.1544,-1.1555,-1.1557,-1.156,-1.1611,0,0,-1.1566,-1.1567,0,0,0,0,0,0,0,0,-1.1545,-1.1548,-1.1565,-1.1564,-1.1562,-1.1567,-1.1577,-1.1598,-1.155,-1.1554,-1.1545,-1.1543,-1.1562,-1.1563,-1.1569,-1.1611,-1.1612,-1.1567,-1.1568,-1.1569,-1.1569,0,0,0,0,0,0,0,-1.1544,-1.1548,-1.1586,-1.1565,-1.1563,-1.1553,-1.1553,-1.158,-1.1568,-1.1553,-1.155,-1.1552,-1.156,-1.1567,-1.1569,-1.1612,-1.1566,-1.1568,-1.157,-1.1571,-1.1695,-1.1697,0,0,0,0,0,0,-1.1545,-1.1547,-1.1585,-1.1586,-1.1549,-1.1555,-1.1556,-1.1567,-1.1568,-1.1566,-1.1553,-1.155,-1.1564,-1.1566,-1.1569,-1.1629,-1.1569,-1.1571,-1.1572,-1.1693,-1.1696,-1.1698,0,0,0,0,0,0,-1.1544,-1.1549,-1.1585,-1.1566,-1.1569,-1.1558,-1.1571,-1.1568,-1.1575,-1.1568,-1.1565,-1.1562,-1.1563,-1.1566,-1.16,-1.1629,-1.1572,-1.1574,-1.1691,-1.1694,-1.1697,-1.1749,0,0,0,0,0,0,-1.1543,-1.1549,-1.1568,-1.1566,-1.1571,-1.1616,-1.1573,-1.157,-1.1579,-1.1574,-1.1576,-1.1574,-1.1562,-1.1597,-1.1603,-1.1631,-1.1576,-1.1689,-1.1693,-1.1696,-1.1745,-1.1753,-1.1761,0,0,0,0,0,-1.1541,-1.1583,-1.157,-1.1574,-1.1594,-1.1618,-1.162,-1.1605,-1.1581,-1.16,-1.1595,-1.1574,-1.1624,-1.1601,-1.1607,-1.1636,-1.1687,-1.1691,-1.1696,-1.1741,-1.1752,-1.176,0,0,0,0,0,0,-1.159,-1.1583,-1.1568,-1.161,-1.1615,-1.1611,-1.1635,-1.1616,-1.1629,-1.1624,-1.1604,-1.1605,-1.1643,-1.1642,-1.1617,-1.1685,-1.1652,-1.1657,-1.1684,-1.1694,-1.1702,-1.1702,-1.1577,0,0,0,0,0,-1.1605,-1.1625,-1.1617,-1.1655,-1.1658,-1.1646,-1.1656,-1.1643,-1.1648,-1.165,-1.1647,-1.1653,-1.167,-1.1682,-1.1697,-1.1744,-1.1744,-1.1766,-1.1774,-1.1781,-1.1787,-1.1811,-1.1822,-1.1713,-1.1713,-1.1713,0,0,-1.1638,-1.1636,-1.165,-1.1665,-1.1667,-1.1688,-1.1648,-1.1672,-1.1687,-1.1653,-1.1686,-1.1684,-1.1689,-1.1729,-1.1747,-1.1731,-1.1816,-1.1787,-1.1792,-1.1794,-1.1817,-1.1827,-1.1837,-1.1716,-1.1715,-1.1715,0,0,-1.1708,-1.1709,-1.174,-1.1743,-1.1746,-1.1737,-1.1745,-1.1743,-1.1741,-1.1772,-1.1747,-1.1765,-1.1795,-1.1799,-1.1805,-1.1875,-1.1856,-1.1881,-1.1923,-1.1948,-1.1956,-1.1964,-1.1989,-1.1999,-1.1886,-1.1886,-1.1886,0,-1.1749,-1.1779,-1.1759,-1.1784,-1.1792,-1.176,-1.1792,-1.1796,-1.1805,-1.1811,-1.1791,-1.1827,-1.1828,-1.187,-1.1887,-1.1892,-1.1901,-1.1881,-1.1956,-1.1964,-1.197,-1.1995,-1.2004,-1.1889,-1.1889,-1.1889,-1.1888,0,-1.1828,-1.1849,-1.1874,-1.1882,-1.1892,-1.1921,-1.1906,-1.1918,-1.1904,-1.1898,-1.193,-1.193,-1.1944,-1.1953,-1.194,-1.1992,-1.1982,-1.196,-1.1926,-1.1984,-1.2007,-1.2016,-1.1894,-1.1892,-1.1892,-1.1891,0,0,-1.1932,-1.1927,-1.1937,-1.194,-1.194,-1.1956,-1.1983,-1.1996,-1.2008,-1.2014,-1.2036,-1.2061,-1.2041,-1.2048,-1.2034,-1.2055,-1.2111,-1.2031,-1.203,-1.2046,-1.2169,-1.2187,-1.2198,-1.2098,-1.2099,-1.2101,-1.2169,0,-1.2001,-1.2046,-1.2029,-1.2076,-1.2095,-1.2064,-1.2088,-1.2091,-1.2085,-1.21,-1.2093,-1.2112,-1.2083,-1.2087,-1.2106,-1.21,-1.2136,-1.2095,-1.2119,-1.212,-1.212,-1.221,-1.2228,-1.2293,-1.2178,-1.2179,-1.218,0,-1.2088,-1.2097,-1.2146,-1.2142,-1.215,-1.2171,-1.2181,-1.2196,-1.2199,-1.2193,-1.22,-1.2182,-1.2208,-1.2173,-1.2209,-1.2181,-1.219,-1.2188,-1.219,-1.2193,-1.2155,-1.2216,-1.2313,-1.2324,-1.2194,-1.2193,-1.2192,0,-1.216,-1.2184,-1.2216,-1.2219,-1.2216,-1.2231,-1.2231,-1.2231,-1.224,-1.2249,-1.2254,-1.2267,-1.2274,-1.2283,-1.2269,-1.2245,-1.2307,-1.2271,-1.2304,-1.2304,-1.232,-1.2319,-1.2421,-1.2323,-1.2323,-1.2323,-1.2322,0,-1.224,-1.2271,-1.2248,-1.2268,-1.2302,-1.2281,-1.2315,-1.2311,-1.2311,-1.233,-1.2304,-1.2322,-1.2301,-1.2318,-1.2306,-1.2338,-1.2341,-1.2337,-1.2334,-1.2341,-1.2341,-1.2347,-1.2343,-1.2325,-1.2325,-1.2324,-1.2324,0,-1.2327,-1.2312,-1.2345,-1.2338,-1.2337,-1.2363,-1.2357,-1.2375,-1.2366,-1.239,-1.2395,-1.2381,-1.2399,-1.2385,-1.2402,-1.2395,-1.2437,-1.2427,-1.2436,-1.2434,-1.2467,-1.2465,-1.2578,-1.2592,-1.2484,-1.2485,-1.2486,0,-1.2379,-1.2403,-1.2398,-1.2408,-1.2408,-1.2425,-1.2434,-1.2414,-1.2424,-1.2427,-1.2445,-1.246,-1.2471,-1.2501,-1.2493,-1.2506,-1.2497,-1.2536,-1.2499,-1.2504,-1.2499,-1.2498,-1.25,-1.2544,-1.2545,-1.2546,-1.2547,0,-1.2475,-1.2466,-1.2479,-1.2489,-1.25,-1.2507,-1.2512,-1.2522,-1.2501,-1.2514,-1.2531,-1.2539,-1.2556,-1.2572,-1.2582,-1.2581,-1.2561,-1.2558,-1.2566,-1.2574,-1.2579,-1.2577,-1.2458,-1.2556,-1.2555,-1.2555,-1.2554,-1.2554,-1.2547,-1.2566,-1.2565,-1.258,-1.2581,-1.2586,-1.2603,-1.2596,-1.2609,-1.2621,-1.2608,-1.2629,-1.263,-1.2641,-1.2643,-1.2659,-1.2644,-1.2656,-1.2659,-1.2663,-1.2668,-1.2575,-1.2661,-1.2661,-1.2661,-1.266,-1.266,0,-1.2642,-1.2639,-1.2653,-1.2661,-1.2672,-1.265,-1.2654,-1.2666,-1.2684,-1.2686,-1.2697,-1.2717,-1.2731,-1.2724,-1.2737,-1.2751,-1.2742,-1.2755,-1.2755,-1.2755,-1.2681,-1.2673,-1.2762,-1.2762,-1.2762,-1.2762,-1.2762,-1.2762,-1.2693,-1.2724,-1.2715,-1.2746,-1.2743,-1.2763,-1.2767,-1.2771,-1.2773,-1.2796,-1.2807,-1.2802,-1.28,-1.2812,-1.2824,-1.2822,-1.2828,-1.2845,-1.2839,-1.277,-1.276,-1.2751,-1.2743,-1.2846,-1.2846,-1.2912,-1.2912,-1.2913]},{"header":{"parameterUnit":"m.s-1","parameterCategory":1,"la1":30.2991,"la2":30.254,"lo1":-89.0895,"lo2":-89.0444,"dy":0.0017,"dx":0.0017,"nx":28,"ny":28,"refTime":"2024-03-02T09:00:00:Z","depth":0,"parameterNumber":3,"parameterNumberName":"V-component_of_WINDS"},"data":[0,0,0,0,0,0,0,0,0,0,0,0,0,0,0,0,0,0,0,0,0,0,0,0,0,0,0,0,0,0,0,0,0,0,0,0,0,0,0,0,0,0,0,0,0,0,0,0,0,0,0,0,0,0,0,0,0,0,-2.726,-2.7261,0,-2.7283,-2.7283,-2.7284,-2.7275,-2.7274,-2.7274,-2.7273,-2.7295,-2.7296,-2.7297,0,0,0,0,0,0,0,0,0,0,0,0,0,-2.7207,-2.7208,-2.726,-2.7261,-2.7261,-2.7283,-2.7283,-2.7284,-2.7275,-2.7274,-2.7274,-2.7273,-2.7294,-2.7295,-2.7297,0,0,0,0,0,0,0,0,0,0,0,0,0,-2.723,-2.7209,-2.726,-2.7259,-2.726,-2.7283,-2.7283,-2.7284,-2.7275,-2.7274,-2.7274,-2.7273,-2.7294,-2.7295,-2.7297,-2.7322,0,0,-2.7302,-2.7302,0,0,0,0,0,0,0,0,-2.7229,-2.7232,-2.7259,-2.726,-2.726,-2.7275,-2.7272,-2.7297,-2.7275,-2.7269,-2.7273,-2.7273,-2.7289,-2.7291,-2.7297,-2.7323,-2.7324,-2.7302,-2.7303,-2.7303,-2.7304,0,0,0,0,0,0,0,-2.7227,-2.7231,-2.7269,-2.726,-2.726,-2.7257,-2.7259,-2.7277,-2.7283,-2.727,-2.7269,-2.7272,-2.7289,-2.7295,-2.7297,-2.7324,-2.7302,-2.7303,-2.7304,-2.7305,-2.7372,-2.7372,0,0,0,0,0,0,-2.7226,-2.723,-2.7269,-2.727,-2.7242,-2.7259,-2.7261,-2.7271,-2.7283,-2.7284,-2.7273,-2.7272,-2.7293,-2.7295,-2.7298,-2.7327,-2.7303,-2.7305,-2.7306,-2.7371,-2.7372,-2.7373,0,0,0,0,0,0,-2.7225,-2.7229,-2.7268,-2.725,-2.7254,-2.726,-2.7271,-2.7272,-2.7278,-2.7285,-2.7286,-2.7278,-2.7292,-2.7295,-2.7316,-2.7328,-2.7306,-2.7307,-2.737,-2.7371,-2.7372,-2.7387,0,0,0,0,0,0,-2.7223,-2.7229,-2.7239,-2.725,-2.7255,-2.7287,-2.7272,-2.7273,-2.7281,-2.728,-2.729,-2.7291,-2.7292,-2.7314,-2.7318,-2.733,-2.7308,-2.7369,-2.737,-2.7372,-2.7386,-2.7389,-2.7392,0,0,0,0,0,-2.7221,-2.7242,-2.724,-2.7245,-2.7269,-2.7287,-2.729,-2.7291,-2.7282,-2.7292,-2.7296,-2.7291,-2.7326,-2.7316,-2.732,-2.7333,-2.7368,-2.737,-2.7372,-2.7385,-2.7388,-2.7392,0,0,0,0,0,0,-2.7232,-2.7244,-2.7241,-2.7267,-2.7276,-2.7286,-2.7298,-2.7295,-2.7307,-2.7305,-2.7305,-2.7307,-2.7328,-2.7333,-2.7321,-2.7358,-2.7346,-2.7348,-2.7354,-2.7358,-2.7361,-2.7359,-2.731,0,0,0,0,0,-2.7238,-2.7253,-2.7262,-2.7283,-2.7288,-2.7292,-2.7301,-2.73,-2.731,-2.7314,-2.7319,-2.7328,-2.7341,-2.735,-2.7362,-2.7386,-2.7388,-2.7397,-2.74,-2.7403,-2.7405,-2.7418,-2.7422,-2.7379,-2.7379,-2.7379,0,0,-2.7249,-2.7257,-2.7267,-2.7286,-2.7293,-2.7308,-2.7296,-2.7312,-2.7323,-2.7316,-2.7336,-2.734,-2.735,-2.7372,-2.7383,-2.7377,-2.7417,-2.7405,-2.7407,-2.7408,-2.742,-2.7424,-2.7428,-2.738,-2.738,-2.738,0,0,-2.7277,-2.7285,-2.7304,-2.7312,-2.7323,-2.7325,-2.733,-2.734,-2.7343,-2.7363,-2.7358,-2.737,-2.7392,-2.74,-2.7406,-2.7436,-2.7431,-2.744,-2.7455,-2.7468,-2.7471,-2.7474,-2.7484,-2.7488,-2.7442,-2.7442,-2.7442,0,-2.729,-2.7313,-2.7314,-2.733,-2.7338,-2.7333,-2.7351,-2.7358,-2.7373,-2.7378,-2.7372,-2.7399,-2.7406,-2.743,-2.7437,-2.7442,-2.7447,-2.7439,-2.7471,-2.7474,-2.7477,-2.7486,-2.749,-2.7443,-2.7443,-2.7443,-2.7443,0,-2.7327,-2.7343,-2.7357,-2.7371,-2.7381,-2.7398,-2.7401,-2.741,-2.7409,-2.7412,-2.7432,-2.7439,-2.7452,-2.7458,-2.7457,-2.7481,-2.7477,-2.7471,-2.7459,-2.7482,-2.7491,-2.7495,-2.7445,-2.7444,-2.7444,-2.7444,0,0,-2.7364,-2.7378,-2.7383,-2.739,-2.7401,-2.7413,-2.743,-2.7444,-2.7451,-2.7461,-2.7475,-2.7493,-2.7487,-2.7495,-2.7494,-2.7505,-2.7528,-2.7497,-2.7497,-2.7502,-2.7555,-2.756,-2.7564,-2.7525,-2.7525,-2.7526,-2.7554,0,-2.7393,-2.7423,-2.7424,-2.7451,-2.7465,-2.746,-2.7474,-2.7482,-2.7485,-2.7497,-2.75,-2.7513,-2.7504,-2.7509,-2.7519,-2.7523,-2.7538,-2.7521,-2.7536,-2.7537,-2.7534,-2.7569,-2.7574,-2.76,-2.7557,-2.7558,-2.7559,0,-2.7431,-2.7442,-2.7471,-2.748,-2.7486,-2.7499,-2.7511,-2.7523,-2.7532,-2.7533,-2.7541,-2.7539,-2.7555,-2.7542,-2.7564,-2.7552,-2.7558,-2.7561,-2.7562,-2.7563,-2.7549,-2.7571,-2.7609,-2.7613,-2.7564,-2.7564,-2.7563,0,-2.7454,-2.7477,-2.7497,-2.7502,-2.7514,-2.7523,-2.7528,-2.7536,-2.7544,-2.7554,-2.7559,-2.7571,-2.7578,-2.7586,-2.7587,-2.7578,-2.7608,-2.7596,-2.7609,-2.761,-2.7616,-2.7616,-2.7655,-2.7621,-2.7621,-2.762,-2.762,0,-2.7486,-2.7504,-2.7507,-2.752,-2.7539,-2.7539,-2.7558,-2.7562,-2.7569,-2.7581,-2.7577,-2.7589,-2.7589,-2.76,-2.7601,-2.7618,-2.7621,-2.7622,-2.7622,-2.7623,-2.7622,-2.7627,-2.7625,-2.7621,-2.7621,-2.7621,-2.7621,0,-2.7516,-2.7519,-2.754,-2.7549,-2.7552,-2.7565,-2.7573,-2.7584,-2.7586,-2.7602,-2.7606,-2.7609,-2.7622,-2.7624,-2.7639,-2.7639,-2.766,-2.7658,-2.7657,-2.7657,-2.767,-2.7669,-2.7714,-2.7719,-2.7681,-2.7682,-2.7682,0,-2.7536,-2.755,-2.756,-2.7568,-2.7574,-2.7587,-2.7595,-2.7596,-2.7604,-2.7615,-2.7625,-2.7638,-2.7648,-2.7669,-2.7673,-2.7684,-2.7682,-2.7697,-2.7684,-2.7684,-2.7682,-2.7681,-2.7682,-2.77,-2.77,-2.77,-2.7701,0,-2.7572,-2.7573,-2.7585,-2.7598,-2.7608,-2.7617,-2.7626,-2.7633,-2.7634,-2.7644,-2.7658,-2.7666,-2.7681,-2.7694,-2.7705,-2.7709,-2.7705,-2.7705,-2.7708,-2.7709,-2.7708,-2.7709,-2.7664,-2.7704,-2.7703,-2.7703,-2.7703,-2.7703,-2.7598,-2.7609,-2.7618,-2.7632,-2.7639,-2.7647,-2.7658,-2.7662,-2.7673,-2.7686,-2.7686,-2.7701,-2.7708,-2.7723,-2.7728,-2.7739,-2.7734,-2.7739,-2.7741,-2.7742,-2.7743,-2.7706,-2.7741,-2.7741,-2.7741,-2.7741,-2.7741,0,-2.7633,-2.7639,-2.7651,-2.7664,-2.7674,-2.767,-2.7679,-2.7688,-2.7702,-2.7709,-2.772,-2.7735,-2.7747,-2.7751,-2.7763,-2.7771,-2.7769,-2.7774,-2.7773,-2.7774,-2.7747,-2.7743,-2.7775,-2.7775,-2.7775,-2.7775,-2.7775,-2.7775,-2.7653,-2.7672,-2.7674,-2.7696,-2.7701,-2.7716,-2.7722,-2.7729,-2.7735,-2.7753,-2.7763,-2.7766,-2.7772,-2.7784,-2.7794,-2.7795,-2.7799,-2.7805,-2.7805,-2.778,-2.7776,-2.7773,-2.7769,-2.7806,-2.7806,-2.7831,-2.7831,-2.7831]}]]